Regional Weather Roundup
Issued by NWS

Home | Current Version | Previous Version | Text Only | Print | Product List | Glossary On
Versions: 1 2 3 4 5 6 7 8 9 10 11 12 13 14 15 16 17 18 19 20 21 22 23 24 25 26 27 28 29 30 31 32 33 34 35 36 37 38 39 40 41 42 43 44 45 46 47 48 49 50
000
ASUS43 KTOP 252159
RWRKS

WEATHER ROUNDUP FOR KANSAS
NATIONAL WEATHER SERVICE GOODLAND KS
500 PM CDT MON SEP 25 2017

NOTE:  "FAIR" INDICATES FEW OR NO CLOUDS BELOW 12,000 FEET WITH NO
SIGNIFICANT WEATHER AND/OR OBSTRUCTIONS TO VISIBILITY.

KSZ001>006-013>018-027>032-041>047-252300-
NORTHWEST KANSAS

CITY           SKY/WX    TMP DP  RH WIND       PRES   REMARKS
GOODLAND       LGT RAIN  49  48  97 N12       30.04R FOG
HAYS           CLOUDY    56  55  97 N12       29.96R FOG
HILL CITY      CLOUDY    55  53  93 N10       29.99S
RUSSELL        CLOUDY    57  56  96 N10       29.93R
$$

KSZ061>065-074>080-084>089-252300-
SOUTHWEST KANSAS

CITY           SKY/WX    TMP DP  RH WIND       PRES   REMARKS
DODGE CITY     LGT RAIN  57  57 100 N12       29.96S FOG
ELKHART          N/A     55  56 100 N13         N/A
GARDEN CITY    RAIN      54  52  93 NE14      29.96F FOG
GREAT BEND     RAIN      58  57  97 N8        29.94R
LIBERAL        CLOUDY    56  54  93 N21G28    29.92F
$$

KSZ066>073-081>083-090>101-252300-
SOUTHEAST KANSAS

CITY           SKY/WX    TMP DP  RH WIND       PRES   REMARKS
CHANUTE        MOSUNNY   84  67  56 SE8G20    29.86F
COFFEYVILLE    PTSUNNY   84  65  52 S8        29.85S
HUTCHINSON     LGT RAIN  67  64  90 E7        29.90R
NEWTON         LGT RAIN  66  64  93 NW8       29.92R
PARSONS        MOSUNNY   84  64  50 SE6       29.87S
WICHITA INTL   RAIN      66  65  96 NW8       29.91R
WICHITA JABRA  HVY RAIN  66  66 100 W12       29.91R FOG
WICHITA MCCONL LGT RAIN  66  64  94 N3        29.92R FOG
WINFIELD       LGT RAIN  69  68  96 W13       29.90R
$$

KSZ007>012-019>026-033>040-048>060-102>105-252300-
NORTHEAST KANSAS

CITY           SKY/WX    TMP DP  RH WIND       PRES   REMARKS
CONCORDIA      LGT RAIN  65  65 100 N5        29.89R
EMPORIA        CLOUDY    72  66  81 NW14G22   29.88R
LAWRENCE       CLOUDY    86  67  52 SE12      29.85S
MANHATTAN      HVY RAIN  66  65  96 N6        29.90R FOG
OLATHE IND     CLOUDY    84  66  54 S12       29.87F
OLATHE EXE     CLOUDY    83  66  56 S14       29.87F
SALINA         CLOUDY    68  64  87 SE7       29.90R
TOPEKA BILLARD CLOUDY    76  68  76 N9        29.86R
TOPEKA FORBES  CLOUDY    76  68  76 N12       29.86R
$$



USA.gov is the U.S. government's official web portal to all federal, state and local government web resources and services.